Flag for U.S.A. Weather past 2 weeks in Wake Island, Wake Island, U.S.A.

Now
78 °F

Clear.


Feels Like: 81 °F
Forecast: 79 / 86 °F
Wind: 14 mph from East

Location: Wake Island Airfld

Current Time: May 30, 2015 at 5:29:06 AM

Latest Report: May 30, 2015 at 4:58 AM


Visibility: N/A

Pressure: 30.03 "Hg

Humidity: 72%

Dew point: 69 °F

Location of Wake IslandLocation

Historic Weather in Wake Island — Graph

°F

Wake Island temperature yesterday

Maximum temperature yesterday: 87 °F (at 1:58 PM)
Minimum temperature yesterday: 77 °F (at 3:58 AM)
Average temperature yesterday: 81 °F

Past Weeks' High & Low Weather Summary

 TemperatureHumidityPressure
High87 °F (May 29, 1:58 PM)94% (May 29, 3:58 AM)30.11 "Hg (May 29, 3:58 AM)
Low75 °F (May 16, 3:58 AM)59% (May 21, 2:58 PM)29.93 "Hg (May 27, 3:58 PM)
Average81 °F76%30.02 "Hg
* Reported May 15 3:58 AM — May 30 3:58 AM, Wake Island, Weather by CustomWeather, © 2015

Note: Actual official high and low records may vary slightly from our data, if they occured in-between our weather recording intervals... More about our weather records

Advertising

Wake Island weather history for previous 24 hours

 ConditionsComfort  
Time TempWeatherWind HumidityBarometerVisibility
3:58 AM
Sat, May 30
79 °FPassing clouds.14 mph76%30.02 "HgN/A
3:03 AM79 °FPassing clouds.15 mph79%30.00 "HgN/A
2:58 AM79 °FPassing clouds.15 mph77%30.02 "HgN/A
1:58 AM79 °FPassing clouds.17 mph78%30.03 "HgN/A
12:58 AM79 °FClear.16 mph79%30.05 "HgN/A
11:58 PM
Fri, May 29
80 °FClear.17 mph78%30.06 "HgN/A
10:58 PM80 °FPartly cloudy.17 mph77%30.07 "HgN/A
9:58 PM80 °FPartly cloudy.16 mph75%30.06 "HgN/A
8:58 PM80 °FPassing clouds.15 mph73%30.05 "HgN/A
7:58 PM80 °FPassing clouds.18 mph75%30.03 "HgN/A
6:58 PM82 °FSunny.21 mph70%30.02 "HgN/A
5:58 PM84 °FSunny.21 mph67%30.01 "HgN/A
4:58 PM85 °FPassing clouds.21 mph68%30.00 "HgN/A
3:58 PM86 °FPassing clouds.20 mph63%30.01 "HgN/A
2:58 PM86 °FSunny.20 mph65%30.01 "HgN/A
1:58 PM87 °FPassing clouds.22 mph64%30.03 "HgN/A
12:58 PM87 °FScattered clouds.21 mph64%30.05 "HgN/A
11:58 AM86 °FPassing clouds.18 mph67%30.07 "HgN/A
10:58 AM85 °FPassing clouds.20 mph70%30.08 "HgN/A
9:58 AM84 °FPassing clouds.20 mph73%30.08 "HgN/A
8:58 AM83 °FPassing clouds.17 mph76%30.07 "HgN/A
7:58 AM81 °FScattered clouds.15 mph81%30.07 "HgN/A
6:58 AM79 °FClear.16 mph86%30.05 "HgN/A
5:58 AM78 °FPartly cloudy.9 mph89%30.03 "HgN/A
5:04 AM77 °FLight rain. Partly cloudy.12 mph94%30.01 "HgN/A
5:03 AM77 °FPartly cloudy.13 mph94%30.01 "HgN/A
Weather by CustomWeather, © 2015

See weather overviewHow to use our weather pages